Location: Chapel Hill
(35.9132°N, 79.0558°W)
Time: 12:49:23
(UTC-05:00)

ISS - Visible Passes

Search period start: 15 December 2025 00:00
Search period end: 25 December 2025 00:00
Orbit: 416 x 420 km, 51.6° (Epoch: 14 December)

Date Brightness Start Highest point End Pass type
(mag) Time Alt. Az. Time Alt. Az. Time Alt. Az.
15 Dec -3.8 05:50:49 51° WNW 05:51:17 58° NW 05:54:38 10° NE visible
16 Dec -1.2 05:05:40 18° NE 05:05:40 18° NE 05:06:39 10° NE visible
16 Dec -1.8 06:38:39 11° WNW 06:40:23 15° NNW 06:42:28 10° NNE visible
17 Dec -1.9 05:53:10 19° N 05:53:10 19° N 05:54:53 10° NNE visible
